Location: North Runcton
(52.7000°N, 0.4333°E)
Time: 05:41:36
(UTC+00:00)

Cosmos 2084 Rocket - Pass Details

Date: 19 May 2025
Orbit: 542 x 579 km, 62.8° (Epoch: 13 June)

Event Time Altitude Azimuth Distance (km) Brightness Sun altitude
Rises 21:53:10 0° 216° (SW) 2,782 6.7 -12.7°
Reaches altitude 10° 21:55:25 10° 214° (SW) 1,883 5.8 -12.8°
Maximum altitude 21:59:37 64° 133° (SE) 636 3.3 -13.1°
Drops below altitude 10° 22:03:49 10° 52° (NE) 1,875 6.2 -13.4°
Sets 22:06:03 0° 49° (NE) 2,769 7.1 -13.6°
